Voltar ao catálogo

OPS 4682 DEB

AtivoPO
NORAD 38389·DEBRIS·🇺🇸 United States

Lançado Apr 3, 1965 de Vandenberg Space Force Base

Loading…

Próximas Passagens (próximas 24 horas)

TLE

EnvelhecendoSource: Space-Track

Época: Sep 9, 2026, 03:00 UTC

1 38389U 65027CS  26252.12517728  .00000272  00000-0  87893-3 0  9990
2 38389  90.3235  44.1971 0005229  63.2149 296.9507 13.00018905 92718

Acompanhe OPS 4682 DEB em tempo real com AllMySat

Download on the App Store